User: anonymous   Login
Location: Unspecified
(0.0000°N, 0.0000°E)
Time: 10:57:31
(UTC+00:00)
Language:

Cosmos 2334 - Orbit

View from above orbital plane
View from above orbital plane
View from above satellite
View from above satellite

Ground track
Ground track

The orbit data is extracted from the following two-line orbital elements,

1 24304U 96052A   18196.76775931  .00000025  00000-0  10908-4 0  9994
2 24304  82.9336  61.7214 0030653  35.8384   9.4203 13.73555664 95642
Epoch (UTC): 15 July 2018 18:25:34
Eccentricity: 0.0030653
inclination: 82.9336°
perigee height: 964 km
apogee height: 1009 km
right ascension of ascending node: 61.7214°
argument of perigee: 35.8384°
revolutions per day: 13.73555664
mean anomaly at epoch: 9.4203°
orbit number at epoch: 9564

The dashed part of the orbit path shows where the satellite is in the earth's shadow,  

DLR